Regional Weather Roundup
Issued by NWS

Home | Current Version | Previous Version | Text Only | Print | Product List | Glossary Off
Versions: 1 2 3 4 5 6 7 8 9 10 11 12 13 14 15 16 17 18 19 20 21 22 23 24 25 26 27 28 29 30 31 32 33 34 35 36 37 38 39 40 41 42 43 44 45 46 47 48 49 50

000
ASUS45 KSLC 150810
RWRUT

UTAH REGIONAL WEATHER ROUNDUP
NATIONAL WEATHER SERVICE SALT LAKE CITY UT
200 AM MDT MON SEP 15 2014

UTZ001>011-023>025-150900-

NORTHERN UTAH

CITY           SKY/WX    TMP DP  RH WIND       PRES   REMARKS
HILL AFB       MOCLDY    66  39  37 SE16      30.07F
LOGAN          CLEAR     53  44  71 CALM      30.09R
OGDEN          PTCLDY    65  41  41 S7        30.04F
PROVO AIRPORT  CLEAR     55  48  76 CALM      30.09R
SALT LAKE CITY MOCLDY    68  42  38 S9        30.03S
VERNAL         PTCLDY    57  38  48 W8        30.16R
WENDOVER       PTCLDY    66  30  26 S5        30.03S
HEBER CITY     PTCLDY    48  41  76 CALM      30.18R
WEST JORDAN    CLEAR     64  39  39 S8        30.08R

$$

UTZ012>022-026-027-150900-

SOUTHERN UTAH

CITY           SKY/WX    TMP DP  RH WIND       PRES   REMARKS
BRYCE CANYON   MOCLDY    49  39  68 W9        30.32R
CEDAR CITY     CLEAR     60  39  45 SE5       30.15R
MILFORD        CLEAR     59  36  42 S3        30.10R
MOAB/CYNLANDS  CLEAR     61  41  47 CALM      30.06R
PRICE          PTCLDY    63  29  27 NE8       30.17S
ST GEORGE      MOSUNNY   73  43  33 SE8       29.98R
KANAB            N/A     57  39  51 NE7       30.15S

$$

REGIONAL REPORTS     COLORADO/ARIZONA

CITY           SKY/WX    TMP DP  RH WIND       PRES   REMARKS
CRAIG, CO      CLEAR     45  39  79 CALM      30.24R
GRAND JUNCTION PTCLDY    61  38  42 SE13      30.12R
RIFLE          CLEAR     55  38  52 E5        30.20R
MONTROSE       CLEAR     60  41  49 SE7       30.22R
CORTEZ         CLEAR     57  43  59 NE3       30.21R
PAGE, AZ       PTCLDY    77  43  29 SW6       30.06R
GRAND CANYON   CLEAR     49  43  80 E3        30.25S
KINGMAN        CLEAR     72  44  36 SE6       29.99S
FLAGSTAFF      PTCLDY    51  47  86 CALM      30.29S

$$

REGIONAL REPORTS    NEVADA/IDAHO/WYOMING

CITY           SKY/WX    TMP DP  RH WIND       PRES   REMARKS
LAS VEGAS, NV  CLEAR     85  48  27 SW8       29.84R
ELY            CLEAR     55  33  43 SE8       30.19R
ELKO           CLEAR     55  29  36 E5        30.10S
POCATELLO, ID  CLEAR     51  34  52 N6        30.09R
BURLEY         CLEAR     53  42  66 SW3       30.05R
EVANSTON, WY   MOCLDY    55  33  43 S8        30.27R
ROCK SPRINGS   CLEAR     50  30  46 E13       30.28R

$$


USA.gov is the U.S. government's official web portal to all federal, state and local government web resources and services.